Regional Weather Roundup
Issued by NWS

Home | Current Version | Previous Version | Graphics & Text | Print | Product List | Glossary On
Versions: 1 2 3 4 5 6 7 8 9 10 11 12 13 14 15 16 17 18 19 20 21 22 23 24 25 26 27 28 29 30 31 32 33 34 35 36 37 38 39 40 41 42 43 44 45 46 47 48 49 50
000
ASUS43 KMPX 261701
RWRMN
WEATHER ROUNDUP FOR MINNESOTA
NATIONAL WEATHER SERVICE TWIN CITIES/CHANHASSEN MN
1200 PM CDT SAT JUL 26 2014


NOTE: "FAIR" INDICATES FEW OR NO CLOUDS BELOW 12,000 FEET WITH NO
SIGNIFICANT WEATHER AND/OR OBSTRUCTIONS TO VISIBILITY. N/A MEANS
CURRENT SKY AND/OR WEATHER CONDITIONS ARE NOT AVAILABLE.

MNZ060>063-068>070-261800-
   Twin Cities Metro

CITY           SKY/WX    TMP DP  RH WIND       PRES   REMARKS
TWIN CITIES    PTSUNNY   80  60  50 CALM      29.83R
ST PAUL        PTSUNNY   79  63  57 S6        29.83R
CRYSTAL        PTSUNNY   80  60  50 S7        29.82R
BLAINE         PTSUNNY   81  61  50 CALM      29.83R
LAKEVILLE      CLOUDY    77  68  73 SW3       29.85R
EDEN PRAIRIE   CLOUDY    78  64  61 SW5       29.84R
SOUTH ST PAUL  PTSUNNY   80  62  53 SW6       29.84R
LAKE ELMO      FAIR      79  63  57 CALM      29.84R
$$
MNZ001>005-007-008-013>017-022>024-027-028-261800-
   Northwest Minnesota

CITY           SKY/WX    TMP DP  RH WIND       PRES   REMARKS
BEMIDJI        SUNNY     79  53  40 SW13      29.79S
HALLOCK        MOSUNNY   72  55  56 W18G25    29.72R
ROSEAU         SUNNY     75  63  64 SW13G18   29.71S
WARROAD        SUNNY     77  63  61 SW13G21   29.70F
THIEF RVR FALL SUNNY     73  57  56 W15       29.76S
CROOKSTON      SUNNY     75  59  57 W16       29.77S
FOSSTON        SUNNY     75  61  60 S18       29.78S
DETROIT LAKES  SUNNY     79  61  53 W12G20    29.83S
MOORHEAD       SUNNY     81  70  69 SW10      29.78F
PARK RAPIDS    SUNNY     81  53  37 W13       29.81S
$$
MNZ006-009>011-018-025>026-261800-
   North Central Minnesota

CITY           SKY/WX    TMP DP  RH WIND       PRES   REMARKS
BAUDETTE       MOSUNNY   79  58  48 SW10      29.73F
FLAG ISLAND    SUNNY     72  61  68 S10       29.68F
INTL FALLS     SUNNY     76  56  49 W8        29.75F
WASKISH        SUNNY     77  57  50 SW6       29.76S
BIG FORK       SUNNY    N/A N/A N/A S6        29.78S
LONGVILLE      SUNNY     79  55  44 SW7       29.81S
GRAND RAPIDS   SUNNY     75  55  50 W5        29.81R
CRANE LAKE     SUNNY     75  54  46 NW6       29.76F
ORR            SUNNY     77  52  41 W6        29.74F
COOK           SUNNY     77  54  44 W7        29.77F
$$
MNZ012-019>021-037-261800-
   Northeast Minnesota

CITY           SKY/WX    TMP DP  RH WIND       PRES   REMARKS
DULUTH         SUNNY     79  54  41 NW8       29.79S
ELY            SUNNY     75  52  43 NW5G16    29.76F
HIBBING        SUNNY     79  55  43 NW6       29.78F
EVELETH        SUNNY     77  52  41 W5        29.78F
DULUTH HARBOR  SUNNY     77  61  57 E5        29.77S
TWO HARBORS    SUNNY     79  55  44 W8        29.74F
SILVER BAY     SUNNY     79  59  50 NW8       29.73F
GRAND MARAIS     N/A     82  55  39 VRB5      29.70F
G MARAIS ARPRT MOSUNNY   73  52  46 NW10G18   29.77F
$$
MNZ029>031-032-039>041-046>048-054>057-064-261800-
   West Central Minnesota

CITY           SKY/WX    TMP DP  RH WIND       PRES   REMARKS
FERGUS FALLS   PTSUNNY   77  64  65 SW15      29.82F
MORRIS         SUNNY     81  70  69 SW7       29.83F
ALEXANDRIA     SUNNY     77  65  66 SW13      29.86S
ELBOW LAKE     FAIR      77  67  70 SW10      29.84S
WADENA         SUNNY     79  57  47 W10       29.83R
GLENWOOD       MOSUNNY   79  64  61 SW10      29.86F
APPLETON       MOSUNNY   81  68  65 SW8       29.84S
BENSON         MOSUNNY   79  70  73 SW7       29.84F
ORTONVILLE     MOSUNNY   81  68  65 W8        29.84F
MADISON        PTSUNNY   79  72  78 SW7       29.85S
WILLMAR        FAIR      73  64  73 CALM      29.85F
$$
MNZ033>034-036-042>043-049>051-058-059-261800-
   Central Minnesota

CITY           SKY/WX    TMP DP  RH WIND       PRES   REMARKS
ST CLOUD       MOSUNNY   83  57  41 SW9       29.84R
SAUK CENTRE    FAIR      79  64  59 SW10      29.85F
PAYNESVILLE    MOSUNNY   76  62  62 S7        29.85S
AITKIN         SUNNY     81  63  54 W3        29.81R
PINE RIVER     MOSUNNY   77  61  57 SW7       29.86R
BRAINERD       MOSUNNY   78  59  51 SW10      29.83R
STAPLES        SUNNY     81  55  41 SW3       29.82F
LONG PRAIRIE   FAIR      79  59  50 SW9       29.85S
LITTLE FALLS   SUNNY     77  54  44 S6        29.84S
LITCHFIELD     CLOUDY    75  68  78 SW3       29.86S
BUFFALO        PTSUNNY   76  61  59 SW3       29.85R
MAPLE LAKE     PTSUNNY   77  63  62 SW5       29.86R
$$
MNZ037-044-045-052-053-261800-
   East Central Minnesota

CITY           SKY/WX    TMP DP  RH WIND       PRES   REMARKS
PRINCETON      MOSUNNY   82  61  47 SW7       29.83S
MORA           SUNNY     77  59  53 SW6       29.84R
CAMBRIDGE      SUNNY     82  63  51 S5        29.81R
RUSH CITY      SUNNY     80  59  49 CALM      29.82S
MOOSE LAKE     SUNNY     79  55  44 W3        29.80R
HINCKLEY       FAIR      79  61  53 S5        29.81S
CLOQUET        SUNNY     79  48  34 W6        29.80R
MCGREGOR       MOSUNNY   79  55  44 CALM      29.82R
$$
MNZ071>073-080-081-089-090-097-098-261800-
   Southwest Minnesota

CITY           SKY/WX    TMP DP  RH WIND       PRES   REMARKS
MONTEVIDEO     PTSUNNY   73  73 100 SW6       29.86S
GRANITE FALLS  CLOUDY    70  70 100 S3        29.88R FOG
CANBY          CLOUDY    75  68  80 W7        29.88R
MARSHALL       CLOUDY    70  61  73 NW10      29.86S
REDWOOD FALLS  LGT RAIN  72  69  90 S13       29.85S
OLIVIA         CLOUDY    72  68  88 S5        29.86R
PIPESTONE      RAIN      70  66  88 S13       29.93F
WINDOM         LGT RAIN  72  66  83 W14G20    29.95R
WORTHINGTON    CLOUDY    73  70  88 SW5       29.98R
JACKSON        LGT RAIN  73  70  88 NW8       29.98R
TRACY          RAIN      69  62  79 SW14      29.87F
SLAYTON        RAIN      68  65  88 CALM      29.95F
$$
MNZ065>067-074>077-082>085-091>093-261800-
   South Central Minnesota

CITY           SKY/WX    TMP DP  RH WIND       PRES   REMARKS
MANKATO        CLOUDY    73  68  83 W8        29.89R
NEW ULM        LGT RAIN  72  72 100 W5        29.91R
ST JAMES       RAIN      63 N/A N/A W15G21    29.93R
FAIRMONT       CLOUDY    73  64  73 NW12      29.92R
GLENCOE        CLOUDY    76  67  71 SW3       29.86R
FARIBAULT      CLOUDY    81  68  65 W5        29.87R
OWATONNA       CLOUDY    75  70  83 NW6       29.87R
WASECA         CLOUDY    72  66  83 CALM      29.89R
ALBERT LEA     CLOUDY    73  72  94 N6        29.85R FOG
$$
MNZ078>079-086>088-094>096-261800-
   Southeast Minnesota

CITY           SKY/WX    TMP DP  RH WIND       PRES   REMARKS
ROCHESTER      CLOUDY    75  70  84 N5        29.85F HAZE
RED WING       PTSUNNY   81  68  65 SW3       29.82R
STANTON        CLOUDY    78  69  72 CALM      29.83S
DODGE CENTER   CLOUDY    75  72  88 N6        29.86S
WINONA         CLOUDY    73  70  88 CALM      29.83R
AUSTIN         LGT RAIN  73  72  94 NE3       29.84R
PRESTON        CLOUDY    71  71 100 N5        29.86S FOG
$$
ABBREVIATIONS USED IN REMARKS
   TC - TEMPERATURES IN CELSIUS
  WCI - WIND CHILL INDEX
   HX - HEAT INDEX
  VSB - VISIBILITY
$$


USA.gov is the U.S. government's official web portal to all federal, state and local government web resources and services.